Temperature
17 17 17 17 17 17 16 16 16 16 16 16 16 16 16 16 16 16 15 15 15 15 15 15 15 15 15 15 15 15 15 15 15 15 15 15 14 14 14 14 14 14 14
17 17 17 17 16 16 16 16 16 16 16 16 16 15 15 15 15 15 15 15 15 15 15 15 15 15 15 15 15 15 15 15 15 15 15 14 14 14 14 14 14 14 14
17 17 16 16 16 16 16 16 16 16 16 15 15 15 15 15 15 15 15 15 15 15 15 15 15 15 14 14 14 15 15 15 14 14 14 14 14 14 14 14 14 14 14
17 17 16 16 16 16 16 16 16 15 15 15 15 15 15 15 15 15 14 14 14 14 15 14 14 14 14 14 14 14 14 14 14 14 14 14 14 14 13 13 14 13 13
17 16 16 16 16 16 15 15 15 15 15 15 15 15 15 15 15 14 14 14 14 14 14 14 14 14 14 14 14 14 14 14 14 14 14 14 14 13 14 13 13 13 13
17 16 16 16 16 16 15 15 15 15 15 15 14 14 14 14 14 14 14 14 14 14 14 14 14 14 14 14 14 14 14 14 14 14 14 14 13 13 13 13 13 13 13
16 16 16 16 16 16 15 15 15 15 15 15 14 14 14 14 14 14 14 14 14 13 13 13 13 14 14 14 14 14 14 14 14 13 13 13 13 13 13 13 13 13 13
16 16 16 16 15 15 15 15 15 15 15 15 14 14 14 14 14 14 14 13 13 13 13 13 13 13 13 13 13 13 13 13 13 13 13 13 13 13 13 13 13 12 12
16 16 16 15 15 15 15 15 15 14 14 14 14 14 14 13 14 13 13 13 13 13 13 13 13 13 13 13 13 13 13 13 13 13 13 13 13 13 13 12 12 12 13
16 16 15 15 15 15 15 14 14 14 14 14 14 14 13 13 13 13 13 13 13 13 13 13 13 13 13 13 13 13 13 13 13 13 13 13 13 13 13 12 12 12 13
16 15 15 15 15 14 14 14 14 14 14 14 13 13 13 13 13 13 13 13 13 13 13 13 13 13 13 13 13 12 13 13 12 12 12 12 12 12 12 12 12 12 12
15 15 15 15 14 14 14 14 14 13 13 14 13 13 13 13 13 13 13 13 13 12 13 13 12 13 13 13 12 12 12 12 12 12 12 12 12 12 12 12 12 12 12
15 15 15 14 14 14 14 14 13 13 13 14 14 14 13 13 13 13 13 13 13 12 12 12 12 12 12 12 12 12 12 12 12 12 12 12 12 12 12 12 12 12 12
15 15 14 14 14 14 13 13 13 13 13 13 13 13 13 13 13 13 13 12 12 12 12 12 12 12 12 12 12 12 12 12 12 12 12 12 12 12 12 12 12 12 12
14 14 14 14 14 13 13 13 13 13 13 13 13 13 13 13 13 13 12 12 12 12 12 12 12 12 12 12 12 12 11 12 12 12 12 12 12 12 12 12 12 12 12
14 14 14 14 13 13 13 13 13 13 13 13 13 13 12 12 12 12 12 12 12 12 11 11 11 11 11 11 12 12 12 12 12 11 11 12 12 12 12 12 12 12 11
13 13 13 13 13 13 13 13 13 13 13 13 12 12 12 12 12 12 12 12 11 11 11 11 11 11 11 11 11 11 11 11 11 11 11 11 11 11 11 11 11 11 11
13 13 13 13 13 13 13 13 13 13 13 12 12 12 12 12 12 12 12 11 11 11 11 11 11 11 11 11 11 11 11 11 11 11 11 11 11 11 11 11 11 11 11
13 13 13 12 12 12 12 12 12 12 12 12 12 12 12 12 12 11 11 11 11 11 11 11 11 11 11 11 11 11 11 11 11 11 11 11 11 11 11 11 11 11 11
12 12 12 12 12 12 12 12 12 12 12 12 12 12 12 11 11 11 11 11 11 11 11 11 11 11 11 11 11 11 11 11 11 11 11 11 11 11 11 11 11 11 11
12 12 12 12 12 12 12 12 12 12 12 12 12 12 11 11 11 11 11 11 11 10 10 10 11 11 11 10 10 10 10 10 10 10 10 10 10 10 10 10 10 10 10
12 12 12 12 12 12 11 12 11 12 12 12 12 12 11 11 11 11 11 11 11 10 10 10 10 10 10 10 10 10 10 10 10 10 10 10 10 10 10 10 10 10 10
12 12 12 12 11 11 11 11 12 12 12 11 11 11 11 11 11 11 11 10 10 10 10 10 10 10 10 10 10 10 10 10 10 10 10 10 10 10 10 10 10 10 10
12 12 12 11 11 11 11 11 11 11 11 11 11 11 11 11 10 10 10 10 10 10 10 10 10 10 10 10 10 10 10 10 10 10 9 10 10 10 10 10 10 10 10
11 11 11 11 11 11 11 11 11 11 11 11 11 11 10 10 10 10 10 10 10 10 10 10 10 10 10 10 10 10 10 10 9 9 9 9 9 9 9 9 9 9 9
12 12 12 12 11 11 11 11 11 11 11 11 11 10 10 10 10 10 10 10 10 10 10 9 10 10 9 9 9 9 9 9 9 9 9 9 9 9 9 9 9 9 9
Wind_Speed
6 6 5 5 5 5 5 4 4 3 3 3 4 4 3 3 3 3 4 3 4 5 5 5 5 4 4 3 4 5 4 4 5 4 3 2 3 3 2 3 4 4 4
6 6 6 5 5 6 5 5 5 4 4 4 4 4 4 4 3 3 4 4 5 5 5 5 5 4 4 4 4 5 4 4 5 5 4 3 3 4 3 4 3 4 4
6 6 6 6 6 6 5 5 5 5 5 5 4 4 4 4 4 4 4 5 5 5 5 5 6 5 5 5 5 5 5 5 5 5 5 3 3 3 3 4 4 3 5
6 6 6 5 5 5 5 5 5 5 5 5 5 5 5 5 5 5 5 5 5 5 5 5 5 6 6 6 5 6 6 5 5 5 5 4 4 4 4 4 4 4 4
5 5 5 5 5 4 4 5 4 5 5 5 5 5 5 5 4 4 5 5 5 5 5 5 5 5 5 5 6 6 6 6 6 6 6 5 4 4 5 5 5 4 4
5 5 4 4 4 4 4 4 4 4 4 5 5 5 6 5 1 3 5 6 6 6 6 5 5 6 6 7 8 8 8 8 8 7 7 6 6 6 5 5 5 5 4
5 5 4 4 4 4 4 4 4 4 4 5 5 6 6 5 3 4 6 6 6 6 6 6 6 5 5 6 7 9 10 10 9 9 8 8 6 6 5 6 5 6 6
5 5 5 5 5 5 5 5 5 5 5 5 5 6 7 6 5 6 6 7 7 7 7 7 7 6 5 5 6 7 8 9 10 10 9 8 7 6 6 7 7 6 6
6 6 6 5 6 5 5 5 5 5 5 5 5 6 7 6 5 6 6 6 6 8 7 7 7 7 4 4 6 7 7 7 7 7 7 7 5 5 5 5 5 6 5
6 6 6 6 6 6 6 5 5 5 5 5 5 5 6 6 4 5 6 6 6 6 6 6 6 6 4 5 7 7 7 7 6 6 7 8 8 8 9 8 7 7 6
6 6 6 7 7 6 6 5 5 6 5 5 5 5 5 5 5 5 6 6 6 7 6 5 4 4 5 7 7 7 7 7 6 7 7 7 7 7 8 8 8 7 7
6 6 7 7 7 6 6 6 6 6 6 6 5 5 4 4 4 4 6 7 7 7 6 5 4 3 6 7 7 6 7 7 6 6 6 6 6 6 6 7 7 7 6
6 7 7 7 6 6 7 7 6 6 6 5 5 4 4 3 3 6 7 7 8 6 5 4 4 5 6 6 7 8 7 6 5 6 6 6 6 5 5 5 5 5 6
7 7 7 7 7 6 6 6 6 6 5 5 5 5 4 4 3 2 3 3 5 5 5 4 5 7 7 5 5 5 5 5 5 5 5 5 4 5 6 5 5 5 5
7 7 7 7 6 6 6 5 6 5 4 5 5 5 5 5 2 2 3 4 4 4 4 4 4 3 4 4 4 4 4 5 5 5 5 4 5 5 5 4 4 4 5
7 7 6 6 5 5 5 5 3 4 3 4 5 6 5 4 2 3 4 5 5 5 5 5 4 4 4 4 4 4 4 5 5 5 5 5 4 4 4 4 4 4 4
7 6 5 5 5 6 6 5 4 4 5 7 7 7 7 5 5 5 5 5 6 6 6 5 4 4 4 5 5 5 4 4 4 4 4 4 4 4 4 4 4 4 4
7 6 6 5 5 5 5 5 5 5 4 4 6 9 9 8 8 7 6 5 5 5 5 5 5 5 5 5 5 4 4 4 4 4 5 4 4 4 5 4 4 5 5
6 5 5 5 5 4 5 5 5 5 5 5 4 4 8 8 8 7 6 5 5 5 5 5 5 5 5 4 4 4 4 4 4 4 4 4 5 5 5 5 4 5 6
5 4 4 4 4 4 4 4 4 4 5 4 4 4 3 4 4 4 4 5 5 5 5 5 5 5 5 5 4 5 5 4 5 5 4 4 4 4 5 5 5 5 5
5 5 6 5 4 4 3 3 3 3 4 4 3 2 2 4 4 4 4 4 4 4 4 4 4 5 5 5 5 5 6 5 5 5 4 4 4 4 4 4 4 5 4
3 3 4 4 4 4 3 4 4 4 4 4 3 3 4 4 3 3 3 3 4 4 4 4 4 4 4 5 5 6 6 6 5 5 5 5 5 5 5 5 5 5 5
3 4 3 3 3 4 4 4 4 4 4 3 3 3 3 3 3 3 3 3 3 3 3 3 4 4 4 5 5 5 6 6 5 5 5 5 5 5 5 6 6 7 6
3 4 4 3 3 3 4 4 4 4 4 3 3 3 3 3 3 3 2 2 2 3 3 3 4 4 5 5 4 4 4 4 5 5 6 6 6 6 6 6 6 7 7
3 3 4 4 3 3 3 3 3 4 4 4 3 3 3 4 3 3 2 2 3 2 2 3 3 3 4 5 5 4 2 2 4 5 6 6 7 6 6 7 6 6 6
3 3 3 3 3 3 3 3 3 3 3 3 3 3 3 3 3 3 3 2 2 2 2 3 3 3 4 4 4 3 1 3 5 6 7 6 6 6 6 6 7 7 6
Wind_Direction
199 200 206 207 211 216 224 230 236 239 237 239 243 242 241 244 249 253 263 257 250 247 244 236 239 248 246 243 241 245 243 244 250 262 253 212 208 240 222 227 227 228 206
198 199 205 211 216 218 220 224 228 229 231 227 234 237 241 243 247 251 257 257 256 251 246 242 239 231 232 242 241 241 240 238 239 246 250 228 214 220 227 244 244 241 245
191 199 204 211 217 222 225 227 229 231 234 234 234 237 243 246 248 250 251 254 254 255 254 246 240 235 234 237 239 241 238 231 228 233 240 235 233 226 233 239 242 247 254
196 199 203 215 220 223 225 228 232 234 235 235 237 240 242 247 249 252 253 255 260 262 262 258 247 234 232 234 237 240 239 237 231 233 237 232 231 226 232 243 243 236 251
196 202 205 212 217 221 225 229 231 236 239 235 239 242 247 248 252 262 264 258 263 266 265 258 250 238 244 241 246 244 237 235 232 233 234 232 232 227 231 239 248 248 241
198 205 201 205 211 217 222 225 228 231 237 231 235 243 249 254 234 256 266 265 266 266 264 260 252 235 232 231 240 248 252 243 240 239 240 237 235 236 233 241 246 249 254
202 204 204 206 212 218 219 216 219 223 230 229 235 242 250 251 225 235 247 260 259 261 261 260 263 254 239 250 238 233 242 245 246 244 247 249 244 240 237 239 243 256 263
205 206 210 211 213 215 217 218 221 223 231 236 241 246 250 244 218 230 241 250 255 258 257 256 258 263 261 259 259 250 242 234 231 233 242 247 248 248 236 236 242 246 251
215 216 216 216 218 216 219 222 226 233 241 245 243 248 253 250 220 227 238 253 252 255 257 254 253 257 256 257 257 257 254 245 230 223 234 245 256 243 243 244 241 244 251
224 224 222 218 221 222 223 226 228 232 239 246 243 247 253 260 234 227 235 249 255 259 255 251 244 244 246 243 252 251 250 249 243 227 220 227 231 223 215 226 237 240 247
230 228 226 222 223 223 222 226 229 232 235 242 250 253 249 250 236 219 228 248 256 260 262 263 258 205 226 241 250 249 249 254 246 238 232 229 224 221 217 217 227 234 243
235 230 228 227 229 220 217 224 229 231 231 231 236 247 247 239 236 222 220 239 261 264 269 270 265 222 237 242 243 243 248 247 242 238 238 234 229 224 218 215 218 231 246
235 232 228 228 230 224 222 224 227 226 234 237 239 246 251 257 231 194 212 227 240 253 270 286 278 252 252 240 229 229 233 235 235 234 235 236 234 227 218 211 210 218 234
235 231 226 226 225 222 226 226 232 235 234 238 244 251 255 254 262 269 266 253 235 247 266 257 235 237 245 253 233 220 226 231 235 237 240 240 233 223 217 211 212 214 224
237 232 230 228 225 222 226 235 236 240 247 246 247 251 255 262 285 330 278 273 280 285 281 266 258 246 241 235 232 228 228 223 225 234 238 237 230 224 225 215 212 216 225
237 234 231 227 222 225 224 232 226 233 215 231 247 254 258 257 256 269 271 274 279 269 258 252 254 257 257 253 245 236 228 227 229 233 236 232 226 223 226 223 219 223 228
243 240 235 228 224 227 229 231 233 222 208 219 226 228 236 235 233 244 252 257 253 240 241 250 251 254 254 251 249 242 236 231 237 236 234 230 225 220 225 229 228 230 234
242 232 231 229 229 229 232 237 239 242 239 233 220 212 211 212 220 232 236 241 245 230 244 248 246 247 249 253 254 250 242 235 233 236 236 235 229 222 224 228 228 230 235
238 234 231 235 233 236 239 240 240 240 243 241 239 210 199 206 210 218 220 246 257 257 255 251 246 244 247 248 251 250 246 240 238 237 236 241 238 231 230 231 230 228 239
236 233 233 237 236 233 235 239 241 243 243 234 231 235 217 219 236 226 224 244 253 255 256 255 249 246 245 245 244 244 239 235 234 234 234 238 243 239 235 236 241 241 242
233 218 210 226 229 230 232 236 239 240 244 239 233 221 236 246 245 244 240 241 244 248 253 256 253 246 243 243 245 241 239 237 236 237 238 240 244 245 244 240 241 247 252
232 227 223 219 215 220 227 226 229 231 231 236 236 201 194 237 248 248 249 249 245 244 249 254 259 256 253 248 245 243 241 239 241 241 240 242 245 246 245 240 239 241 244
233 229 228 228 224 210 222 230 227 227 229 230 231 232 226 238 244 251 253 255 254 252 248 245 254 257 254 252 248 247 249 248 248 246 246 249 250 249 245 242 239 242 242
231 235 238 234 230 228 224 227 228 225 226 225 228 232 236 238 243 244 250 255 257 257 250 248 249 252 256 258 259 258 261 268 262 249 250 253 253 251 248 246 246 244 243
232 235 242 242 240 235 229 228 230 230 235 240 240 240 239 237 237 241 240 242 251 255 260 260 258 258 259 262 267 274 297 295 274 267 253 253 254 254 251 249 249 249 244
241 242 243 247 248 247 242 243 244 239 238 242 245 245 246 246 241 241 240 240 251 255 265 269 280 285 281 270 276 293 279 246 252 262 256 249 250 251 251 249 250 247 245
Height
1511 1512 1513 1514 1515 1515 1516 1516 1516 1516 1517 1517 1517 1517 1517 1517 1517 1517 1518 1517 1517 1517 1517 1517 1517 1517 1518 1518 1519 1519 1520 1520 1520 1520 1521 1520 1519 1520 1520 1519 1520 1519 1520
1508 1509 1510 1511 1512 1513 1513 1513 1513 1513 1514 1514 1514 1515 1515 1515 1515 1514 1514 1514 1514 1514 1514 1514 1514 1514 1514 1515 1515 1516 1516 1516 1517 1517 1517 1517 1517 1517 1517 1516 1517 1518 1517
1506 1507 1508 1508 1509 1509 1510 1510 1510 1510 1511 1512 1512 1512 1512 1512 1512 1511 1511 1511 1511 1510 1510 1510 1510 1510 1510 1511 1511 1512 1513 1513 1513 1514 1514 1514 1515 1515 1514 1514 1515 1514 1514
1503 1504 1504 1505 1506 1506 1507 1507 1508 1508 1508 1509 1509 1509 1509 1509 1509 1508 1508 1508 1507 1507 1507 1506 1506 1506 1507 1507 1508 1508 1509 1510 1510 1510 1511 1511 1511 1511 1512 1512 1512 1511 1511
1500 1501 1501 1502 1503 1503 1504 1504 1505 1505 1506 1506 1506 1506 1506 1506 1506 1506 1505 1505 1504 1504 1503 1503 1503 1503 1503 1504 1504 1505 1505 1506 1507 1507 1507 1507 1508 1508 1508 1509 1509 1509 1508
1497 1498 1499 1499 1500 1500 1501 1501 1502 1502 1502 1503 1503 1503 1503 1503 1503 1502 1502 1501 1501 1500 1500 1500 1500 1499 1499 1499 1500 1500 1501 1502 1503 1503 1503 1503 1503 1504 1505 1505 1506 1506 1506
1495 1496 1496 1496 1497 1498 1498 1498 1498 1498 1499 1499 1499 1499 1499 1499 1499 1499 1498 1498 1498 1497 1497 1496 1497 1497 1496 1496 1496 1496 1497 1497 1498 1498 1499 1499 1500 1500 1501 1502 1502 1502 1502
1492 1493 1493 1493 1494 1495 1495 1495 1495 1495 1495 1495 1495 1495 1495 1496 1495 1495 1495 1494 1494 1494 1493 1493 1493 1492 1492 1492 1492 1492 1492 1492 1493 1493 1494 1495 1496 1497 1497 1498 1497 1498 1498
1489 1489 1490 1490 1491 1491 1491 1491 1491 1491 1491 1491 1492 1492 1491 1492 1492 1492 1491 1491 1491 1490 1490 1490 1489 1489 1488 1488 1488 1488 1488 1488 1489 1489 1489 1490 1491 1492 1493 1494 1495 1495 1495
1486 1486 1487 1487 1487 1487 1487 1487 1488 1488 1488 1488 1488 1488 1488 1488 1488 1488 1488 1488 1487 1486 1486 1486 1485 1485 1484 1484 1484 1484 1483 1484 1485 1485 1485 1486 1487 1488 1489 1489 1490 1491 1492
1483 1483 1483 1483 1483 1484 1484 1484 1484 1484 1484 1485 1485 1485 1484 1485 1485 1484 1484 1484 1483 1483 1482 1482 1482 1481 1480 1480 1480 1480 1479 1480 1481 1481 1482 1482 1483 1483 1484 1485 1486 1487 1488
1479 1480 1480 1480 1480 1481 1480 1480 1481 1481 1481 1481 1481 1481 1481 1481 1481 1481 1480 1480 1480 1479 1478 1478 1477 1477 1476 1475 1475 1475 1475 1476 1476 1477 1478 1479 1479 1480 1480 1481 1482 1482 1483
1475 1475 1475 1475 1476 1476 1476 1477 1477 1477 1478 1478 1478 1478 1478 1478 1478 1477 1477 1477 1476 1475 1475 1474 1473 1472 1471 1471 1471 1471 1472 1472 1472 1473 1474 1475 1476 1476 1477 1477 1478 1479 1479
1471 1471 1471 1471 1471 1472 1472 1472 1474 1474 1474 1474 1475 1475 1475 1475 1475 1474 1474 1473 1472 1471 1471 1470 1469 1468 1468 1467 1467 1468 1468 1468 1469 1470 1470 1471 1472 1473 1473 1474 1475 1476 1476
1467 1467 1467 1467 1468 1468 1468 1468 1469 1469 1470 1471 1471 1472 1471 1471 1471 1470 1469 1469 1468 1468 1467 1466 1466 1465 1465 1465 1465 1465 1465 1466 1466 1466 1467 1468 1469 1470 1470 1470 1471 1472 1473
1462 1462 1463 1464 1464 1464 1464 1465 1464 1465 1465 1466 1466 1467 1467 1467 1467 1466 1466 1465 1465 1464 1464 1463 1463 1463 1462 1462 1462 1462 1462 1462 1463 1463 1463 1464 1465 1466 1466 1467 1468 1468 1470
1459 1458 1459 1459 1460 1460 1461 1461 1461 1461 1460 1461 1462 1463 1463 1463 1463 1462 1462 1461 1461 1461 1461 1460 1460 1460 1460 1460 1460 1460 1460 1460 1460 1460 1460 1461 1462 1462 1463 1464 1464 1465 1466
1455 1455 1455 1455 1456 1456 1457 1457 1457 1457 1457 1458 1458 1458 1458 1458 1458 1458 1458 1458 1458 1457 1457 1456 1456 1457 1457 1457 1457 1457 1457 1457 1457 1457 1458 1458 1459 1459 1460 1460 1461 1462 1463
1452 1452 1452 1452 1452 1453 1454 1454 1454 1454 1455 1455 1455 1455 1455 1454 1454 1454 1454 1454 1454 1454 1453 1453 1453 1453 1453 1453 1453 1454 1454 1454 1454 1454 1455 1455 1456 1456 1456 1457 1458 1458 1459
1448 1448 1448 1449 1449 1450 1450 1450 1450 1451 1451 1452 1452 1452 1452 1452 1452 1451 1451 1450 1450 1450 1450 1450 1450 1450 1450 1450 1450 1450 1451 1451 1451 1451 1452 1452 1452 1453 1453 1454 1454 1455 1456
1445 1445 1445 1445 1446 1446 1447 1447 1447 1448 1448 1448 1449 1448 1448 1448 1448 1448 1447 1447 1447 1446 1446 1446 1446 1446 1446 1446 1447 1447 1447 1448 1448 1448 1448 1449 1449 1449 1449 1450 1450 1451 1452
1442 1442 1442 1443 1443 1443 1443 1443 1444 1445 1446 1446 1446 1445 1445 1445 1445 1445 1444 1443 1443 1443 1443 1443 1443 1443 1443 1443 1443 1444 1444 1444 1445 1445 1445 1445 1445 1446 1446 1447 1447 1448 1448
1440 1440 1440 1440 1441 1440 1440 1441 1441 1442 1442 1443 1443 1442 1442 1442 1442 1442 1441 1441 1440 1440 1440 1440 1440 1440 1440 1440 1440 1440 1441 1441 1442 1442 1442 1442 1442 1442 1442 1443 1443 1444 1444
1438 1438 1438 1438 1438 1438 1438 1438 1439 1439 1439 1440 1440 1439 1439 1439 1439 1438 1438 1438 1437 1437 1437 1437 1436 1436 1436 1436 1437 1437 1437 1437 1438 1438 1438 1438 1438 1438 1438 1438 1439 1440 1440
1436 1437 1436 1436 1435 1436 1436 1436 1436 1437 1437 1437 1437 1437 1437 1436 1436 1436 1435 1435 1435 1434 1434 1434 1434 1433 1433 1433 1433 1433 1433 1433 1433 1434 1434 1434 1434 1434 1434 1434 1434 1435 1435
1435 1435 1434 1434 1434 1434 1434 1434 1434 1434 1434 1434 1434 1434 1434 1434 1433 1433 1433 1432 1432 1432 1431 1431 1431 1430 1429 1429 1429 1428 1428 1428 1429 1429 1429 1430 1430 1430 1430 1430 1430 1430 1430